Weather History for KAXA - February, 2014

Change the Weather History Date:

Friday, February 7, 2014

  Actual Average Record
Temperature  
Mean Temperature 3 °F -  
Max Temperature 15 °F 27 °F 42 °F (1999)
Min Temperature -9 °F 11 °F -9 °F (2003)
Degree Days  
Heating Degree Days 62    
Moisture  
Dew Point -7 °F    
Average Humidity 69    
Maximum Humidity 78    
Minimum Humidity 57    
Precipitation  
Precipitation 0.00 in - - ()
Sea Level Pressure  
Sea Level Pressure 30.21 in    
Wind  
Wind Speed 11 mph (SW)    
Max Wind Speed 17 mph    
Max Gust Speed 22 mph    
Visibility 10 miles    
Events      
Averages and records for this station are not official NWS values.
T = Trace of Precipitation, MM = Missing Value Source: NWS Daily Summary

Daily Weather History Graph

Daily Weather History Graph

Search for Another Location

Airport or City:

Trip Planner

Search our weather history database for the weather conditions in past years. The results will help you decide how hot, cold, wet, or windy it might be!

Date:

Astronomy

Feb. 07, 2014 Rise Set
Actual Time 7:25 AM CST 5:37 PM CST
Civil Twilight 6:55 AM CST 6:07 PM CST
Nautical Twilight 6:21 AM CST 6:41 PM CST
Astronomical Twilight 5:48 AM CST 7:14 PM CST
Moon 11:48 AM CST (2/7) 1:43 AM CST (2/7)
Length of Visible Light 11h 11m
Length of Day
10h 12m
First Quarter, 59% of the Moon is Illuminated
Feb 7
First Quarter
Feb 14
Full
Feb 22
Last Quarter
Mar 1
New
Mar 8
First Quarter

Hourly Weather History & Observations

Time (CST) Temp. Windchill Dew Point Humidity Pressure Visibility Wind Dir Wind Speed Gust Speed Precip Events Conditions
12:15 AM -4.0 °F -21.2 °F -13.0 °F 65% 30.30 in 10.0 mi WSW 10.4 mph - N/A   Clear
12:35 AM -5.8 °F -22.4 °F -14.8 °F 65% 30.30 in 10.0 mi WSW 9.2 mph - N/A   Clear
12:55 AM -5.8 °F -21.2 °F -14.8 °F 65% 30.29 in 10.0 mi WSW 8.1 mph - N/A   Clear
1:15 AM -7.6 °F -23.4 °F -14.8 °F 71% 30.28 in 10.0 mi WSW 8.1 mph - N/A   Clear
1:35 AM -7.6 °F -24.6 °F -14.8 °F 71% 30.28 in 10.0 mi WSW 9.2 mph - N/A   Clear
1:55 AM -7.6 °F -25.7 °F -14.8 °F 71% 30.27 in 10.0 mi SW 10.4 mph - N/A   Clear
2:15 AM -7.6 °F -24.6 °F -14.8 °F 71% 30.27 in 10.0 mi SW 9.2 mph - N/A   Clear
2:35 AM -7.6 °F -26.6 °F -14.8 °F 71% 30.27 in 10.0 mi SW 11.5 mph - N/A   Clear
2:55 AM -7.6 °F -25.7 °F -14.8 °F 71% 30.26 in 10.0 mi SW 10.4 mph - N/A   Clear
3:15 AM -9.4 °F -27.9 °F -16.6 °F 71% 30.26 in 10.0 mi SSW 10.4 mph - N/A   Clear
3:35 AM -9.4 °F -25.6 °F -16.6 °F 71% 30.26 in 10.0 mi SSW 8.1 mph - N/A   Clear
3:55 AM -9.4 °F -28.9 °F -16.6 °F 71% 30.25 in 10.0 mi SW 11.5 mph - N/A   Clear
4:15 AM -9.4 °F -25.6 °F -16.6 °F 71% 30.24 in 10.0 mi SSW 8.1 mph - N/A   Clear
4:35 AM -9.4 °F -26.8 °F -16.6 °F 71% 30.24 in 10.0 mi SW 9.2 mph - N/A   Clear
4:55 AM -7.6 °F -26.6 °F -14.8 °F 71% 30.24 in 10.0 mi SW 11.5 mph - N/A   Clear
5:15 AM -9.4 °F -26.8 °F -16.6 °F 71% 30.24 in 10.0 mi WSW 9.2 mph - N/A   Clear
5:35 AM -9.4 °F -24.3 °F -16.6 °F 71% 30.24 in 10.0 mi SW 6.9 mph 12.7 mph N/A   Clear
5:55 AM -9.4 °F -25.6 °F -16.6 °F 71% 30.24 in 10.0 mi SW 8.1 mph - N/A   Clear
6:15 AM -9.4 °F -25.6 °F -16.6 °F 71% 30.23 in 10.0 mi SW 8.1 mph - N/A   Clear
6:35 AM -9.4 °F -27.9 °F -16.6 °F 71% 30.23 in 10.0 mi SW 10.4 mph - N/A   Clear
6:55 AM -9.4 °F -29.8 °F -16.6 °F 71% 30.24 in 10.0 mi SW 12.7 mph - N/A   Clear
7:15 AM -9.4 °F -27.9 °F -16.6 °F 71% 30.24 in 10.0 mi SW 10.4 mph - N/A   Clear
7:35 AM -7.6 °F -26.6 °F -14.8 °F 71% 30.25 in 10.0 mi SW 11.5 mph - N/A   Clear
7:55 AM -9.4 °F -29.8 °F -16.6 °F 71% 30.25 in 10.0 mi SW 12.7 mph - N/A   Clear
8:15 AM -7.6 °F -24.6 °F -14.8 °F 71% 30.25 in 10.0 mi SW 9.2 mph - N/A   Clear
8:35 AM -7.6 °F -25.7 °F -14.8 °F 71% 30.26 in 10.0 mi SSW 10.4 mph - N/A   Clear
8:55 AM -5.8 °F -24.4 °F -14.8 °F 65% 30.26 in 10.0 mi SSW 11.5 mph - N/A   Clear
9:15 AM -5.8 °F -24.4 °F -13.0 °F 71% 30.26 in 10.0 mi SW 11.5 mph - N/A   Clear
9:35 AM -4.0 °F -22.1 °F -11.2 °F 71% 30.27 in 10.0 mi SW 11.5 mph - N/A   Clear
9:55 AM -2.2 °F -20.7 °F -9.4 °F 71% 30.27 in 10.0 mi SW 12.7 mph - N/A   Clear
10:15 AM -0.4 °F -18.4 °F -7.6 °F 72% 30.26 in 10.0 mi SW 12.7 mph - N/A   Clear
10:35 AM 1.4 °F -15.3 °F -5.8 °F 72% 30.26 in 10.0 mi SW 11.5 mph - N/A   Clear
10:55 AM 5.0 °F -11.6 °F -4.0 °F 66% 30.26 in 10.0 mi SW 12.7 mph - N/A   Clear
11:15 AM 6.8 °F -8.6 °F -2.2 °F 67% 30.26 in 10.0 mi SW 11.5 mph - N/A   Clear
11:35 AM 8.6 °F -6.3 °F -0.4 °F 67% 30.25 in 10.0 mi SW 11.5 mph - N/A   Clear
11:55 AM 8.6 °F -6.3 °F 1.4 °F 73% 30.24 in 10.0 mi SW 11.5 mph - N/A   Clear
12:15 PM 10.4 °F -5.4 °F 1.4 °F 67% 30.23 in 10.0 mi SW 13.8 mph - N/A   Clear
12:35 PM 12.2 °F -3.7 °F 3.2 °F 67% 30.23 in 10.0 mi SW 15.0 mph - N/A   Clear
12:55 PM 12.2 °F -4.3 °F 3.2 °F 67% 30.23 in 10.0 mi WSW 16.1 mph - N/A   Partly Cloudy
1:15 PM 12.2 °F -3.1 °F 3.2 °F 67% 30.21 in 10.0 mi SW 13.8 mph - N/A   Scattered Clouds
1:35 PM 14.0 °F -1.4 °F 3.2 °F 62% 30.20 in 10.0 mi SW 15.0 mph - N/A   Clear
1:55 PM 14.0 °F -2.0 °F 3.2 °F 62% 30.19 in 10.0 mi WSW 16.1 mph - N/A   Clear
2:15 PM 14.0 °F -2.0 °F 3.2 °F 62% 30.19 in 10.0 mi SW 16.1 mph 21.9 mph N/A   Partly Cloudy
2:35 PM 15.8 °F -0.2 °F 3.2 °F 58% 30.18 in 10.0 mi SW 17.3 mph - N/A   Scattered Clouds
2:55 PM 15.8 °F -0.2 °F 3.2 °F 58% 30.18 in 10.0 mi SW 17.3 mph - N/A   Mostly Cloudy
3:15 PM 15.8 °F 0.9 °F 3.2 °F 58% 30.17 in 10.0 mi SW 15.0 mph 20.7 mph N/A   Scattered Clouds
3:35 PM 15.8 °F 0.9 °F 3.2 °F 58% 30.17 in 10.0 mi SW 15.0 mph - N/A   Partly Cloudy
3:55 PM 15.8 °F 1.4 °F 3.2 °F 58% 30.17 in 10.0 mi SW 13.8 mph - N/A   Scattered Clouds
4:15 PM 15.8 °F 3.4 °F 3.2 °F 58% 30.16 in 10.0 mi SW 10.4 mph 17.3 mph N/A   Mostly Cloudy
4:35 PM 15.8 °F 2.7 °F 3.2 °F 58% 30.16 in 10.0 mi SW 11.5 mph - N/A   Mostly Cloudy
4:55 PM 14.0 °F -0.2 °F 3.2 °F 62% 30.16 in 10.0 mi SSW 12.7 mph - N/A   Mostly Cloudy
5:15 PM 14.0 °F 1.2 °F 1.4 °F 57% 30.16 in 10.0 mi SSW 10.4 mph - N/A   Partly Cloudy
5:35 PM 10.4 °F -1.5 °F 1.4 °F 67% 30.16 in 10.0 mi SSW 8.1 mph - N/A   Clear
5:55 PM 8.6 °F -2.6 °F -0.4 °F 67% 30.16 in 10.0 mi SSW 6.9 mph - N/A   Clear
6:15 PM 6.8 °F -6.9 °F -2.2 °F 67% 30.16 in 10.0 mi South 9.2 mph - N/A   Clear
6:35 PM 6.8 °F -7.8 °F -2.2 °F 67% 30.17 in 10.0 mi South 10.4 mph - N/A   Clear
6:55 PM 5.0 °F -9.1 °F -2.2 °F 72% 30.17 in 10.0 mi South 9.2 mph - N/A   Clear
7:15 PM 3.2 °F -11.3 °F -4.0 °F 72% 30.17 in 10.0 mi South 9.2 mph - N/A   Clear
7:35 PM 3.2 °F -10.3 °F -4.0 °F 72% 30.17 in 10.0 mi SSW 8.1 mph - N/A   Clear
7:55 PM 3.2 °F -11.3 °F -4.0 °F 72% 30.16 in 10.0 mi South 9.2 mph - N/A   Partly Cloudy
8:15 PM 3.2 °F -10.3 °F -4.0 °F 72% 30.16 in 10.0 mi South 8.1 mph - N/A   Mostly Cloudy
8:35 PM 5.0 °F -11.6 °F -2.2 °F 72% 30.16 in 10.0 mi South 12.7 mph - N/A   Mostly Cloudy
8:55 PM 5.0 °F -10.8 °F -2.2 °F 72% 30.17 in 10.0 mi South 11.5 mph - N/A   Mostly Cloudy
9:15 PM 3.2 °F -13.1 °F -4.0 °F 72% 30.16 in 10.0 mi South 11.5 mph - N/A   Scattered Clouds
9:35 PM 1.4 °F -13.5 °F -4.0 °F 78% 30.16 in 10.0 mi SSW 9.2 mph - N/A   Partly Cloudy
9:55 PM 1.4 °F -14.5 °F -5.8 °F 72% 30.16 in 10.0 mi South 10.4 mph - N/A   Clear
10:15 PM -0.4 °F -15.7 °F -7.6 °F 72% 30.15 in 10.0 mi South 9.2 mph - N/A   Clear
10:35 PM -0.4 °F -15.7 °F -7.6 °F 72% 30.15 in 10.0 mi South 9.2 mph - N/A   Clear
10:55 PM -0.4 °F -16.7 °F -7.6 °F 72% 30.15 in 10.0 mi South 10.4 mph - N/A   Clear
11:15 PM -0.4 °F -13.4 °F -7.6 °F 72% 30.14 in 10.0 mi South 6.9 mph - N/A   Clear
11:35 PM -0.4 °F -14.7 °F -5.8 °F 78% 30.14 in 10.0 mi South 8.1 mph - N/A   Clear
11:55 PM -0.4 °F -16.7 °F -5.8 °F 78% 30.14 in 10.0 mi South 10.4 mph - N/A   Scattered Clouds